When you browse on this site, cookies collect data to enhance your experience and personalize the content and advertising you see.
Visit our Privacy Policy to learn more. By continuing to use the site, you agree to this use of cookies and data.
  • In Österreich
  • Länderverzeichnis
  • Für 7 Tage
  • Wassertemperatur
  • Wetterkarte
  • News
  • Widgets
  • user-avatar
    Anmelden

    Stündliche Wetter Suárez

    Heute, 21 November, Donnerstag

    Zeit Temperatur Niederschläge Wind Luftdruck Luftfeuchtigkeit
    00:00 +19°C° 0.9 mm 0 m/S 666 mmHg 98%
    01:00 +19°C° 0.9 mm 0 m/S 665 mmHg 98%
    02:00 +19°C° 0.3 mm 0 m/S 665 mmHg 97%
    03:00 +19°C° 0.3 mm 0 m/S 665 mmHg 97%
    04:00 +19°C° 0.3 mm 0 m/S 665 mmHg 97%
    05:00 +19°C° 0.2 mm 0 m/S 665 mmHg 97%
    06:00 +19°C° 0.2 mm 0 m/S 665 mmHg 97%
    07:00 +19°C° 0.2 mm 0 m/S 666 mmHg 97%
    08:00 +20°C° 0.5 mm 0 m/S 666 mmHg 93%
    09:00 +21°C° 0.5 mm 0 m/S 666 mmHg 90%
    10:00 +23°C° 0.5 mm 0 m/S 667 mmHg 87%
    11:00 +23°C° 1.3 mm 0 m/S 666 mmHg 86%
    12:00 +26°C° 1.3 mm 1 m/S 666 mmHg 85%
    13:00 +26°C° 1.3 mm 1 m/S 665 mmHg 84%
    14:00 +26°C° 1.5 mm 1 m/S 665 mmHg 86%
    15:00 +25°C° 1.5 mm 1 m/S 664 mmHg 88%
    16:00 +24°C° 1.5 mm 1 m/S 664 mmHg 91%
    17:00 +23°C° 1.1 mm 1 m/S 664 mmHg 92%
    18:00 +23°C° 1.1 mm 1 m/S 664 mmHg 94%
    19:00 +22°C° 1.1 mm 1 m/S 664 mmHg 96%
    20:00 +21°C° 1.3 mm 1 m/S 665 mmHg 96%
    21:00 +19°C° 1.3 mm 0 m/S 665 mmHg 97%
    22:00 +19°C° 1.3 mm 0 m/S 666 mmHg 97%
    23:00 +19°C° 3.2 mm 0 m/S 665 mmHg 97%

    Morgen, 22 November, Freitag

    Zeit Temperatur Niederschläge Wind Luftdruck Luftfeuchtigkeit
    00:00 +19°C° 3.2 mm 0 m/S 665 mmHg 97%
    01:00 +19°C° 3.2 mm 0 m/S 665 mmHg 98%
    02:00 +19°C° 3.2 mm 0 m/S 664 mmHg 98%
    03:00 +19°C° 3.2 mm 0 m/S 664 mmHg 98%
    04:00 +19°C° 3.2 mm 0 m/S 664 mmHg 99%
    05:00 +19°C° 3.5 mm 0 m/S 664 mmHg 98%
    06:00 +19°C° 3.5 mm 0 m/S 665 mmHg 98%
    07:00 +19°C° 3.5 mm 0 m/S 665 mmHg 98%
    08:00 +19°C° 1.6 mm 0 m/S 666 mmHg 96%
    09:00 +20°C° 1.6 mm 0 m/S 666 mmHg 94%
    10:00 +20°C° 1.6 mm 0 m/S 667 mmHg 93%
    11:00 +21°C° 0.4 mm 0 m/S 666 mmHg 89%
    12:00 +21°C° 0.4 mm 0 m/S 666 mmHg 85%
    13:00 +22°C° 0.4 mm 0 m/S 665 mmHg 81%
    14:00 +22°C° 0.2 mm 0 m/S 665 mmHg 82%
    15:00 +22°C° 0.2 mm 0 m/S 664 mmHg 84%
    16:00 +22°C° 0.2 mm 0 m/S 664 mmHg 86%
    17:00 +21°C° 0.1 mm 0 m/S 664 mmHg 89%
    18:00 +20°C° 0.1 mm 0 m/S 664 mmHg 92%
    19:00 +19°C° 0.1 mm 0 m/S 664 mmHg 96%
    20:00 +19°C° 0 mm 0 m/S 665 mmHg 96%
    21:00 +18°C° 0 mm 0 m/S 665 mmHg 96%
    22:00 +18°C° 0 mm 0 m/S 665 mmHg 96%
    23:00 +18°C° 0 mm 0 m/S 665 mmHg 95%

    übermorgen, 23 November, Samstag

    Zeit Temperatur Niederschläge Wind Luftdruck Luftfeuchtigkeit
    00:00 +18°C° 0 mm 0 m/S 665 mmHg 95%
    01:00 +17°C° 0 mm 0 m/S 665 mmHg 94%
    02:00 +17°C° 0 mm 0 m/S 664 mmHg 94%
    03:00 +17°C° 0 mm 0 m/S 664 mmHg 93%
    04:00 +17°C° 0 mm 0 m/S 664 mmHg 93%
    05:00 +18°C° 0 mm 0 m/S 664 mmHg 93%
    06:00 +18°C° 0 mm 0 m/S 665 mmHg 92%
    07:00 +18°C° 0 mm 0 m/S 665 mmHg 92%
    08:00 +20°C° 0.1 mm 0 m/S 666 mmHg 85%
    09:00 +22°C° 0.1 mm 0 m/S 667 mmHg 79%
    10:00 +24°C° 0.1 mm 0 m/S 667 mmHg 73%
    11:00 +26°C° 0.8 mm 1 m/S 667 mmHg 75%
    12:00 +26°C° 0.8 mm 1 m/S 666 mmHg 78%
    13:00 +26°C° 0.8 mm 1 m/S 665 mmHg 81%
    14:00 +25°C° 1.2 mm 1 m/S 665 mmHg 84%
    15:00 +24°C° 1.2 mm 1 m/S 664 mmHg 87%
    16:00 +24°C° 1.2 mm 1 m/S 663 mmHg 91%
    17:00 +23°C° 0.6 mm 1 m/S 664 mmHg 93%
    18:00 +22°C° 0.6 mm 1 m/S 664 mmHg 94%
    19:00 +19°C° 0.6 mm 0 m/S 664 mmHg 96%
    20:00 +19°C° 0.1 mm 0 m/S 665 mmHg 97%
    21:00 +19°C° 0.1 mm 0 m/S 665 mmHg 97%
    22:00 +18°C° 0.1 mm 0 m/S 666 mmHg 97%
    23:00 +18°C° 0.1 mm 0 m/S 665 mmHg 97%

    24 November, Sonntag

    Zeit Temperatur Niederschläge Wind Luftdruck Luftfeuchtigkeit
    00:00 +18°C° 0.1 mm 0 m/S 665 mmHg 97%
    01:00 +18°C° 0.1 mm 0 m/S 665 mmHg 97%
    02:00 +18°C° 0.1 mm 0 m/S 664 mmHg 97%
    03:00 +18°C° 0.1 mm 0 m/S 664 mmHg 96%
    04:00 +18°C° 0.1 mm 0 m/S 664 mmHg 96%
    05:00 +18°C° 0.1 mm 0 m/S 664 mmHg 96%
    06:00 +18°C° 0.1 mm 0 m/S 665 mmHg 95%
    07:00 +19°C° 0.1 mm 0 m/S 665 mmHg 94%
    08:00 +21°C° 0 mm 0 m/S 666 mmHg 87%
    09:00 +22°C° 0 mm 0 m/S 666 mmHg 80%
    10:00 +24°C° 0 mm 0 m/S 667 mmHg 73%
    11:00 +26°C° 0.5 mm 1 m/S 666 mmHg 74%
    12:00 +26°C° 0.5 mm 1 m/S 665 mmHg 75%
    13:00 +26°C° 0.5 mm 1 m/S 665 mmHg 76%
    14:00 +26°C° 0.8 mm 1 m/S 664 mmHg 80%
    15:00 +25°C° 0.8 mm 1 m/S 663 mmHg 85%
    16:00 +24°C° 0.8 mm 1 m/S 663 mmHg 89%
    17:00 +23°C° 0.5 mm 1 m/S 663 mmHg 91%
    18:00 +22°C° 0.5 mm 1 m/S 664 mmHg 94%
    19:00 +21°C° 0.5 mm 1 m/S 664 mmHg 97%
    20:00 +19°C° 0.1 mm 0 m/S 664 mmHg 97%
    21:00 +19°C° 0.1 mm 0 m/S 665 mmHg 97%
    22:00 +19°C° 0.1 mm 0 m/S 665 mmHg 97%
    23:00 +19°C° 0 mm 0 m/S 665 mmHg 97%

    25 November, Montag

    Zeit Temperatur Niederschläge Wind Luftdruck Luftfeuchtigkeit
    00:00 +19°C° 0 mm 0 m/S 664 mmHg 97%
    01:00 +19°C° 0 mm 0 m/S 664 mmHg 97%
    02:00 +19°C° 0 mm 0 m/S 664 mmHg 97%
    03:00 +19°C° 0 mm 0 m/S 664 mmHg 97%
    04:00 +19°C° 0 mm 0 m/S 663 mmHg 97%
    05:00 +19°C° 0 mm 0 m/S 664 mmHg 96%
    06:00 +19°C° 0 mm 0 m/S 664 mmHg 96%
    07:00 +19°C° 0 mm 0 m/S 664 mmHg 95%
    08:00 +21°C° 0.1 mm 0 m/S 665 mmHg 89%
    09:00 +23°C° 0.1 mm 0 m/S 665 mmHg 82%
    10:00 +26°C° 0.1 mm 1 m/S 665 mmHg 75%
    11:00 +27°C° 0.4 mm 1 m/S 665 mmHg 76%
    12:00 +27°C° 0.4 mm 1 m/S 664 mmHg 76%
    13:00 +27°C° 0.4 mm 1 m/S 663 mmHg 76%
    14:00 +27°C° 0.8 mm 1 m/S 663 mmHg 80%
    15:00 +26°C° 0.8 mm 1 m/S 662 mmHg 83%
    16:00 +25°C° 0.8 mm 1 m/S 661 mmHg 86%
    17:00 +24°C° 0.4 mm 1 m/S 662 mmHg 90%
    18:00 +23°C° 0.4 mm 1 m/S 662 mmHg 93%
    19:00 +22°C° 0.4 mm 1 m/S 662 mmHg 96%
    20:00 +22°C° 0.2 mm 1 m/S 663 mmHg 96%
    21:00 +20°C° 0.2 mm 0 m/S 663 mmHg 96%
    22:00 +20°C° 0.2 mm 0 m/S 664 mmHg 96%
    23:00 +20°C° 0.3 mm 0 m/S 664 mmHg 96%

    26 November, Dienstag

    Zeit Temperatur Niederschläge Wind Luftdruck Luftfeuchtigkeit
    00:00 +20°C° 0.3 mm 0 m/S 663 mmHg 97%
    01:00 +19°C° 0.3 mm 0 m/S 663 mmHg 97%
    02:00 +19°C° 0.4 mm 0 m/S 663 mmHg 97%
    03:00 +19°C° 0.4 mm 0 m/S 663 mmHg 97%
    04:00 +19°C° 0.4 mm 0 m/S 662 mmHg 98%
    05:00 +19°C° 0.7 mm 0 m/S 663 mmHg 97%
    06:00 +19°C° 0.7 mm 0 m/S 663 mmHg 97%
    07:00 +19°C° 0.7 mm 0 m/S 664 mmHg 97%
    08:00 +21°C° 0.3 mm 0 m/S 664 mmHg 91%
    09:00 +23°C° 0.3 mm 0 m/S 665 mmHg 85%
    10:00 +25°C° 0.3 mm 0 m/S 665 mmHg 78%
    11:00 +27°C° 0.6 mm 1 m/S 665 mmHg 78%
    12:00 +27°C° 0.6 mm 1 m/S 664 mmHg 77%
    13:00 +27°C° 0.6 mm 1 m/S 663 mmHg 77%
    14:00 +27°C° 1.1 mm 1 m/S 663 mmHg 80%
    15:00 +26°C° 1.1 mm 1 m/S 662 mmHg 84%
    16:00 +25°C° 1.1 mm 1 m/S 661 mmHg 87%
    17:00 +24°C° 0.7 mm 1 m/S 662 mmHg 90%
    18:00 +23°C° 0.7 mm 1 m/S 662 mmHg 93%
    19:00 +22°C° 0.7 mm 1 m/S 663 mmHg 96%
    20:00 +22°C° 0.4 mm 1 m/S 663 mmHg 96%
    21:00 +22°C° 0.4 mm 1 m/S 663 mmHg 97%
    22:00 +21°C° 0.4 mm 1 m/S 664 mmHg 97%
    23:00 +19°C° 0.2 mm 0 m/S 664 mmHg 97%
    Mehr zeigen